Location: Westminster
(33.3626°N, 96.4619°W)
Time: 22:35:53
(UTC+00:00)

OAO 3 Rocket - Pass Details

Date: 07 July 2022
Orbit: 627 x 681 km, 35.0° (Epoch: 14 August)

Event Time Altitude Azimuth Distance (km) Brightness Sun altitude
Exits shadow 10:03:43 14° 272° (W) 1,856 5.1 -14.5°
Maximum altitude 10:07:40 43° 205° (SSW) 948 3.6 -13.9°
Drops below altitude 10° 10:12:20 10° 134° (SE) 2,102 5.9 -13.1°
Sets 10:14:48 0° 127° (SE) 3,009 6.8 -12.7°
